Satellite: CO-57
Catalog number: 27848
Epoch time:      09148.59858223
Element set:     535
Inclination:      098.7147 deg
RA of node:       157.1029 deg
Eccentricity:    0.0009057
Arg of perigee:   201.0379 deg
Mean anomaly:     159.0421 deg
Mean motion:   14.20441144 rev/day
Decay rate:        3.7e-07 rev/day^2
Epoch rev:           30644
Checksum:              307

Satellite: AO-51
Catalog number: 28375
Epoch time:      09147.54490995
Element set:    0400
Inclination:      098.0524 deg
RA of node:       158.3527 deg
Eccentricity:    0.0083120
Arg of perigee:   187.3150 deg
Mean anomaly:     172.6833 deg
Mean motion:   14.40642876 rev/day
Decay rate:        1.4e-07 rev/day^2
Epoch rev:           25798
Checksum:              318

Satellite: CO-56
Catalog number: 28941
Epoch time:      09148.62841827
Element set:     113
Inclination:      098.1360 deg
RA of node:       319.4251 deg
Eccentricity:    0.0091637
Arg of perigee:   205.8565 deg
Mean anomaly:     153.8104 deg
Mean motion:   15.81975844 rev/day
Decay rate:     4.8844e-04 rev/day^2
Epoch rev:           18415
Checksum:              338

Satellite: GENESAT1
Catalog number: 29655
Epoch time:      09148.79088201
Element set:     719
Inclination:      040.0269 deg
RA of node:       304.8202 deg
Eccentricity:    0.0002789
Arg of perigee:   310.6438 deg
Mean anomaly:     049.4135 deg
Mean motion:   15.65247260 rev/day
Decay rate:      9.702e-05 rev/day^2
Epoch rev:           13943
Checksum:              303

Satellite: CP3
Catalog number: 31129
Epoch time:      09148.74104410
Element set:     957
Inclination:      097.9902 deg
RA of node:       202.7471 deg
Eccentricity:    0.0102521
Arg of perigee:   346.1342 deg
Mean anomaly:     013.7044 deg
Mean motion:   14.52133427 rev/day
Decay rate:       1.50e-06 rev/day^2
Epoch rev:           11206
Checksum:              252

Satellite: CO-65
Catalog number: 32785
Epoch time:      09147.25493757
Element set:    0384
Inclination:      097.9460 deg
RA of node:       211.3929 deg
Eccentricity:    0.0016211
Arg of perigee:   099.4189 deg
Mean anomaly:     260.8857 deg
Mean motion:   14.81483071 rev/day
Decay rate:       -9.5e-07 rev/day^2
Epoch rev:           05834
Checksum:              346

Satellite: KKS-1
Catalog number: 33493
Epoch time:      09148.83952210
Element set:     422
Inclination:      098.0557 deg
RA of node:       260.9659 deg
Eccentricity:    0.0019152
Arg of perigee:   307.0811 deg
Mean anomaly:     052.8652 deg
Mean motion:   14.80673217 rev/day
Decay rate:       2.45e-06 rev/day^2
Epoch rev:            1860
Checksum:              295

Satellite: SOHLA-1
Catalog number: 33496
Epoch time:      09148.77553212
Element set:     383
Inclination:      098.0367 deg
RA of node:       258.3877 deg
Eccentricity:    0.0006683
Arg of perigee:   356.5561 deg
Mean anomaly:     003.5601 deg
Mean motion:   14.69434427 rev/day
Decay rate:        1.0e-08 rev/day^2
Epoch rev:            1842
Checksum:              308

/EX
SB KEPS @ AMSAT  $ORB09148.W
Orbital Elements  09148.WEATHER

HR AMSAT ORBITAL ELEMENTS FOR WEATHER SATELLITES
FROM WA5QGD FORT WORTH,TX May 28, 2009
Send Subscribe/unsubscribe to KEPS at 
http://www.amsat.org/mailman/listinfo/keps
BID: ORB09148.W
TO ALL RADIO AMATEURS BT

Satellite: NOAA-10
Catalog number: 16969
Epoch time:      09147.61846828
Element set:    0628
Inclination:      098.6913 deg
RA of node:       174.3771 deg
Eccentricity:    0.0011402
Arg of perigee:   257.2651 deg
Mean anomaly:     102.7272 deg
Mean motion:   14.27387012 rev/day
Decay rate:       -3.0e-07 rev/day^2
Epoch rev:           18057
Checksum:              306

Satellite: NOAA-11
Catalog number: 19531
Epoch time:      09147.77040448
Element set:    0639
Inclination:      098.7848 deg
RA of node:       238.0380 deg
Eccentricity:    0.0011819
Arg of perigee:   163.1883 deg
Mean anomaly:     196.9677 deg
Mean motion:   14.14895622 rev/day
Decay rate:      -1.51e-06 rev/day^2
Epoch rev:           06663
Checksum:              338

Satellite: NOAA-12
Catalog number: 21263
Epoch time:      09147.96380335
Element set:    0150
Inclination:      098.7703 deg
RA of node:       156.0161 deg
Eccentricity:    0.0011912
Arg of perigee:   200.7946 deg
Mean anomaly:     159.2750 deg
Mean motion:   14.25580181 rev/day
Decay rate:        3.2e-07 rev/day^2
Epoch rev:           93751
Checksum:              282

Satellite: MET-3/5
Catalog number: 21655
Epoch time:      09147.94144545
Element set:    0624
Inclination:      082.5510 deg
RA of node:       220.7927 deg
Eccentricity:    0.0012304
Arg of perigee:   229.7214 deg
Mean anomaly:     130.2834 deg
Mean motion:   13.17018827 rev/day
Decay rate:        5.1e-07 rev/day^2
Epoch rev:           85496
Checksum:              291

Satellite: MET-2/21
Catalog number: 22782
Epoch time:      09147.71434408
Element set:    0469
Inclination:      082.5484 deg
RA of node:       198.2460 deg
Eccentricity:    0.0023612
Arg of perigee:   047.2233 deg
Mean anomaly:     313.0907 deg
Mean motion:   13.83636032 rev/day
Decay rate:        9.7e-07 rev/day^2
Epoch rev:           79477
Checksum:              312

